DAL701 KJFK-KLAX

Flight info

Callsign DAL701
Flight time N/A
Altitude 38000
Route RBV Q430 AIR J80 CREEP/N0480F400 J80 MCI J24 SLN J102 ALS J44 RSK J64 TBC JASSE Q90 DNERO ANJLL4
Aircraft B772/H-SDE2E3FGHIJ5LORVWXY/LB1D1

Departure

Time 2026-05-06 23:38
Airport John F. Kennedy International Airport (KJFK)

Arrival

Time N/A
Airport Los Angeles International Airport (KLAX)
Time Latitude Longitude Altitude Speed Heading
2026-05-06 22:57 40.63922 -73.78205 27 ft 0 kts 73°
2026-05-06 23:22 40.63916 -73.78232 26 ft 4 kts 73°
2026-05-06 23:23 40.63909 -73.78262 26 ft 2 kts 72°
2026-05-06 23:23 40.63905 -73.78291 27 ft 4 kts 106°
2026-05-06 23:23 40.63912 -73.78309 26 ft 4 kts 141°
2026-05-06 23:23 40.63915 -73.78313 24 ft 4 kts 147°
2026-05-06 23:24 40.63933 -73.78327 26 ft 4 kts 151°
2026-05-06 23:24 40.63943 -73.78334 27 ft 0 kts 151°
2026-05-06 23:28 40.63921 -73.78318 25 ft 4 kts 151°
2026-05-06 23:28 40.63892 -73.78302 25 ft 4 kts 165°
2026-05-06 23:29 40.63871 -73.78297 27 ft 7 kts 169°
2026-05-06 23:29 40.63808 -73.78285 27 ft 11 kts 173°
2026-05-06 23:29 40.63723 -73.78272 27 ft 13 kts 172°
2026-05-06 23:29 40.63638 -73.78258 27 ft 12 kts 173°
2026-05-06 23:30 40.63565 -73.78263 28 ft 9 kts 202°
2026-05-06 23:30 40.63508 -73.78307 30 ft 9 kts 211°
2026-05-06 23:30 40.63461 -73.78331 29 ft 5 kts 171°
2026-05-06 23:30 40.63435 -73.78298 30 ft 6 kts 124°
2026-05-06 23:31 40.63405 -73.78232 30 ft 10 kts 120°
2026-05-06 23:31 40.63369 -73.78152 29 ft 12 kts 121°
2026-05-06 23:31 40.63333 -73.78047 29 ft 13 kts 103°
2026-05-06 23:31 40.63334 -73.77931 29 ft 13 kts 78°
2026-05-06 23:32 40.63374 -73.77827 31 ft 13 kts 51°
2026-05-06 23:32 40.63444 -73.77756 30 ft 13 kts 32°
2026-05-06 23:32 40.63525 -73.77693 29 ft 16 kts 30°
2026-05-06 23:32 40.63630 -73.77611 26 ft 18 kts 31°
2026-05-06 23:33 40.63737 -73.77528 24 ft 18 kts 31°
2026-05-06 23:33 40.63860 -73.77431 27 ft 22 kts 31°
2026-05-06 23:33 40.63990 -73.77330 30 ft 22 kts 30°
2026-05-06 23:33 40.64119 -73.77228 29 ft 22 kts 31°
2026-05-06 23:34 40.64247 -73.77128 27 ft 21 kts 30°
2026-05-06 23:34 40.64355 -73.77045 26 ft 16 kts 30°
2026-05-06 23:34 40.64449 -73.76993 27 ft 11 kts
2026-05-06 23:34 40.64511 -73.76985 24 ft 8 kts 13°
2026-05-06 23:35 40.64568 -73.76943 26 ft 10 kts 30°
2026-05-06 23:35 40.64633 -73.76891 27 ft 12 kts 31°
2026-05-06 23:35 40.64702 -73.76837 25 ft 12 kts 31°
2026-05-06 23:35 40.64772 -73.76782 25 ft 12 kts 31°
2026-05-06 23:36 40.64845 -73.76725 32 ft 13 kts 31°
2026-05-06 23:36 40.64920 -73.76666 31 ft 13 kts 31°
2026-05-06 23:36 40.64995 -73.76607 28 ft 13 kts 30°
2026-05-06 23:36 40.65067 -73.76552 31 ft 10 kts 30°
2026-05-06 23:37 40.65102 -73.76485 29 ft 10 kts 95°
2026-05-06 23:37 40.65071 -73.76409 27 ft 9 kts 121°
2026-05-06 23:37 40.65038 -73.76357 27 ft 7 kts 155°
2026-05-06 23:37 40.64982 -73.76388 26 ft 17 kts 211°
2026-05-06 23:38 40.64733 -73.76581 26 ft 75 kts 211°
2026-05-06 23:38 40.64073 -73.77097 29 ft 143 kts 211°
2026-05-06 23:38 40.63136 -73.77817 517 ft 155 kts 208°
2026-05-06 23:38 40.62183 -73.78473 1352 ft 153 kts 208°
2026-05-06 23:39 40.61186 -73.78978 2013 ft 162 kts 205°
2026-05-06 23:39 40.60005 -73.79409 2232 ft 189 kts 198°
2026-05-06 23:39 40.58630 -73.79800 2418 ft 213 kts 199°
2026-05-06 23:39 40.57172 -73.80334 2934 ft 220 kts 205°
2026-05-06 23:40 40.55728 -73.81055 3571 ft 224 kts 207°
2026-05-06 23:40 40.54270 -73.81829 4167 ft 230 kts 207°
2026-05-06 23:40 40.52777 -73.82592 4891 ft 231 kts 207°
2026-05-06 23:40 40.51277 -73.83373 5610 ft 232 kts 208°
2026-05-06 23:41 40.49767 -73.84145 6263 ft 235 kts 207°
2026-05-06 23:41 40.48251 -73.84941 6834 ft 234 kts 217°
2026-05-06 23:41 40.47184 -73.86520 7064 ft 236 kts 245°
2026-05-06 23:41 40.46409 -73.88467 7505 ft 245 kts 244°
2026-05-06 23:42 40.45582 -73.90420 8223 ft 244 kts 243°
2026-05-06 23:42 40.44746 -73.92360 8973 ft 243 kts 243°
2026-05-06 23:42 40.43960 -73.94330 9653 ft 244 kts 244°
2026-05-06 23:42 40.43141 -73.96300 10249 ft 249 kts 243°
2026-05-06 23:43 40.42263 -73.98367 10463 ft 271 kts 243°
2026-05-06 23:43 40.41636 -73.99840 10570 ft 287 kts 243°
2026-05-06 23:43 40.40613 -74.02246 10793 ft 310 kts 243°
2026-05-06 23:43 40.39541 -74.04752 11210 ft 325 kts 242°
2026-05-06 23:44 40.38412 -74.07372 11907 ft 334 kts 242°
2026-05-06 23:44 40.37261 -74.10046 12799 ft 338 kts 242°
2026-05-06 23:44 40.36101 -74.12742 13773 ft 341 kts 242°
2026-05-06 23:44 40.34929 -74.15464 14629 ft 345 kts 242°
2026-05-06 23:45 40.33743 -74.18218 15482 ft 349 kts 243°
2026-05-06 23:45 40.32540 -74.21010 16307 ft 354 kts 243°
2026-05-06 23:45 40.31321 -74.23837 17152 ft 359 kts 243°
2026-05-06 23:45 40.30082 -74.26708 18014 ft 364 kts 244°
2026-05-06 23:46 40.28828 -74.29611 18802 ft 368 kts 244°
2026-05-06 23:46 40.27567 -74.32524 19690 ft 368 kts 244°
2026-05-06 23:46 40.26306 -74.35435 20569 ft 368 kts 245°
2026-05-06 23:46 40.25053 -74.38356 21478 ft 368 kts 245°
2026-05-06 23:47 40.23789 -74.41263 22371 ft 368 kts 245°
2026-05-06 23:47 40.22522 -74.44178 23178 ft 369 kts 246°
2026-05-06 23:47 40.21450 -74.47219 23750 ft 369 kts 253°
2026-05-06 23:47 40.20647 -74.50383 23827 ft 365 kts 256°
2026-05-06 23:48 40.19996 -74.53594 23838 ft 366 kts 259°
2026-05-06 23:48 40.19579 -74.56878 23841 ft 366 kts 265°
2026-05-06 23:48 40.19329 -74.60199 24096 ft 369 kts 265°
2026-05-06 23:48 40.19079 -74.63540 24689 ft 370 kts 265°
2026-05-06 23:49 40.18828 -74.66895 25275 ft 371 kts 265°
2026-05-06 23:49 40.18572 -74.70265 25802 ft 374 kts 265°
2026-05-06 23:49 40.18311 -74.73660 26265 ft 377 kts 265°
2026-05-06 23:49 40.18044 -74.77084 26730 ft 380 kts 265°
2026-05-06 23:50 40.17776 -74.80486 27182 ft 382 kts 264°